Skip Page Navigation
NASA JPL Caltech
NASA Logo - Jet Propulsion Laboratory + View the NASA Portal
+ Near-Earth Object (NEO) Program
Search JPL
JPL Home Earth Solar System Stars & Galaxies Technology
JPL Solar System Dynamics
BODIES ORBITS EPHEMERIDES TOOLS PHYSICAL DATA DISCOVERY FAQ SITE MAP
JPL Small-Body Database Browser
Search: [ help ]  
96315 (1997 AP10)
Classification: Apollo [NEO]          SPK-ID: 2096315
Ephemeris | Orbit Diagram | Orbital Elements | Physical Parameters | Discovery Circumstances | Close-Approach Data ]

[ hide orbit diagram ]
Orbit Diagram
Note: Make sure you have Java enabled on your browser to see the applet. This applet is provided as a 3D orbit visualization tool. The applet was implemented using 2-body methods, and hence should not be used for determining accurate long-term trajectories (over several years or decades) or planetary encounter circumstances. For accurate long-term ephemerides, please instead use our Horizons system.
Orbit Viewer

Additional Notes: the orbits shown in the applet are color coded. The planets are white lines, and the asteroid/comet is a blue line. The bright white line indicates the portion of the orbit that is above the ecliptic plane, and the darker portion is below the ecliptic plane. Likewise for the asteroid/comet orbit, the light blue indicates the portion above the ecliptic plane, and the dark blue the portion below the ecliptic plane.

Orbit Viewer applet originally written and kindly provided by Osamu Ajiki (AstroArts), and further modified by Ron Baalke (JPL).


Orbital Elements at Epoch 2456400.5 (2013-Apr-18.0) TDB
Reference: JPL 115 (heliocentric ecliptic J2000)
 Element Value Uncertainty (1-sigma)   Units 
e .6435483665586494 3.4741e-08  
a 1.442933387403003 4.1205e-09 AU
q .5143359628868617 5.0643e-08 AU
i 6.653681656618748 4.5005e-06 deg
node 293.1166726161448 5.3283e-05 deg
peri 356.1572120337592 5.3638e-05 deg
M 342.6484493618149 6.6801e-06 deg
tp 2456431.014316171930
(2013-May-18.51431617)
1.1849e-05 JED
period 633.0934941180519
1.73
2.7118e-06
7.425e-09
d
yr
n .5686363915356731 2.4357e-09 deg/d
Q 2.371530811919145 6.7723e-09 AU
  Orbit Determination Parameters
   # obs. used (total)      608  
   data-arc span      5920 days (16.21 yr)  
   first obs. used      1997-01-09  
   last obs. used      2013-03-26  
   planetary ephem.      DE405  
   SB-pert. ephem.      SB405-CPV-2  
   condition code      0  
   fit RMS      .58054  
   data source      ORB  
   producer      Otto Matic  
   solution date      2013-Apr-29 15:42:10  

Additional Information
 Earth MOID = .110377 AU 
 T_jup = 4.407 
[ show covariance matrix ]

Ephemeris | Orbit Diagram | Orbital Elements | Physical Parameters | Discovery Circumstances | Close-Approach Data ]

Physical Parameter Table
Parameter Symbol Value Units Sigma Reference Notes
absolute magnitude H 16.886 mag .59369 115 autocmod 2.5c
rotation period rot_per 5.872 h n/a Asteroid Lightcurve DataBase (Rev. 2013-May-01) Published Reference List:
[Hergenrother, C.W.; Whiteley, R.J.; Christensen, E.J. (2009) Minor Planet Bul. 36, 16-18.]

96315 (1997 AP10)          Discovered 1997-Jan-09 by Spacewatch at Kitt Peak (691)
Reference: 20050224/Numbers.arcLast Updated: 2005-02-28

[ show close-approach data ]
Alternate Designations
 1997 AP10 = 1999 CE9 
Ephemeris | Orbit Diagram | Orbital Elements | Physical Parameters | Discovery Circumstances | Close-Approach Data ]
ABOUT SSD CREDITS/AWARDS PRIVACY/COPYRIGHT GLOSSARY LINKS
FirstGov 2013-May-22 04:47 UT
(server date/time)  
NASA Home Page
Site Manager:   Donald K. Yeomans
Webmaster  Alan B. Chamberlin